Regional Weather Roundup
Issued by NWS Huntsville, AL

Home | Current Version | Previous Version | Text Only | Print | Product List | Glossary On
Versions: 1 2 3 4 5 6 7 8 9 10 11 12 13 14 15 16 17 18 19 20 21 22 23 24 25 26 27 28 29 30 31 32 33 34 35 36 37 38 39 40 41 42 43 44 45 46 47 48 49 50
000
ASUS44 KHUN 272110
RWRHUN

WEATHER ROUNDUP FOR THE TENNESSEE VALLEY
NATIONAL WEATHER SERVICE HUNTSVILLE AL
300 PM CST FRI FEB 27 2015

ALZ001>004-272200-
NORTHWEST ALABAMA

CITY           SKY/WX    TMP DP  RH WIND       PRES   REMARKS
COURTLAND HCN    N/A     34 N/A N/A E7          N/A  WCI  28
RUSSELLVILLE     N/A     34 N/A N/A MISG        N/A
SHOALS AIRPORT SUNNY     37  15  40 VRB3      30.48F
SHOALS TVA RES   N/A     36 N/A N/A MISG        N/A
$$

ALZ005>007-016-272200-
NORTH CENTRAL ALABAMA

CITY           SKY/WX    TMP DP  RH WIND       PRES   REMARKS
CULLMAN AG STN   N/A     34 N/A N/A MISG        N/A
DECATUR AP     SUNNY     34  18  52 MISG      30.47F
HUNTSVILLE AP  SUNNY     36  18  48 N9        30.46F WCI  29
HUN NWS/UAH      N/A     36  14  40 NE7         N/A  WCI  30
MERIDIANVILLE  SUNNY     36  12  38 N9        30.45F WCI  29
REDSTONE ARSN  SUNNY     35  19  51 N10       30.45F WCI  28
VINEMONT AP    FAIR      34  17  50 N3        30.45S
$$

ALZ008>010-272200-
NORTHEAST ALABAMA

CITY           SKY/WX    TMP DP  RH WIND       PRES   REMARKS
ALBERTVILLE    SUNNY     36  25  64 N7        30.41S WCI  30
FORT PAYNE     SUNNY     37  12  35 N8        30.41S WCI  31
SCOTTSBORO AP  SUNNY     39  16  38 N8        30.44S WCI  34
SCOTTSBORO HCN   N/A     39 N/A N/A MISG        N/A
VALLEY HEAD      N/A     37 N/A N/A MISG        N/A
$$

TNZ076-096-097-272200-
SOUTHEASTERN MIDDLE TENNESSEE

CITY           SKY/WX    TMP DP  RH WIND       PRES   REMARKS
TULLAHOMA      SUNNY     34  10  37 NE6       30.45F WCI  29
WINCHESTER     SUNNY     34  14  44 N9        30.46S WCI  26
$$

...SURROUNDING SITES...

CITY           SKY/WX    TMP DP  RH WIND       PRES   REMARKS
ATLANTA        MOSUNNY   47  21  35 N9        30.35S
ANNISTON       SUNNY     44  22  41 NE7       30.41S
BIRMINGHAM     SUNNY     42  19  39 NE8       30.43S
CHATTANOOGA    MOSUNNY   40  17  39 N8        30.45S WCI  34
CORINTH        FAIR      37  12  35 N7G15     30.47F WCI  32
DALTON         SUNNY     37  23  56 N9        30.43S WCI  31
GADSDEN        SUNNY     39  19  45 N10       30.42S WCI  32
GOLDEN TRNGL   SUNNY     43  21  42 N7        30.43F
HALEYVILLE       N/A     34  16  48 NE8       30.46F WCI  27
JACKSON TN     SUNNY     34  12  40 N8G18     30.50F WCI  27
LEWISBURG      FAIR      34   9  35 N9        30.48F WCI  27
MEMPHIS        PTSUNNY   34  12  40 E12       30.51S WCI  25
MURFREESBORO   FAIR      32   9  38 NE10      30.51S WCI  24
NASHVILLE      MOSUNNY   33  10  38 NE9       30.54R WCI  25
OXFORD MS      FAIR      37  16  41 NE5       30.48S WCI  34
ROME           SUNNY     42  22  44 N8G16     30.41S
SAVANNAH       SUNNY     37   9  30 NE7       30.48F WCI  32
TUPELO         SUNNY     39  16  39 E8        30.46F WCI  33
TUSCALOOSA     SUNNY     47  22  37 NE10      30.42F
$$

...GULF COAST WEATHER...

CITY           SKY/WX    TMP DP  RH WIND       PRES   REMARKS
GULFPORT       SUNNY     55  30  38 N8        30.29F
PASCAGOULA     SUNNY     57  30  35 NE13G18   30.28F
MOBILE         MOSUNNY   53  29  39 NE13      30.29F
GULF SHORES    PTCLDY    56  31  38 NE10      30.28F
PENSACOLA      PTSUNNY   57  31  37 NE13      30.28F
DESTIN         PTSUNNY   58  34  40 VRB6      30.27F
PANAMA CITY    CLOUDY    55  35  48 NE6       30.27S
APPALACHICOLA  CLOUDY    59  39  47 NE10      30.25F
$$



USA.gov is the U.S. government's official web portal to all federal, state and local government web resources and services.